This demonstration page uses our WeatherBlox Daily Observations layout. Learn more.

39.51506, -84.39828

Hourly Observations for July 17, 2019

Temp ( °F °C ) Dew Point ( °F °C ) Humidity (%) Winds ( mph kmh ) Pressure ( in mb ) Visibility ( mi km ) Precip ( " mm )
12:15 am 00:15 Mostly Cloudy with Light Rain 75 23.7 72 22.3 92 92 S 7 11 29.94 1014 10 16.09344 0.02 0.508
12:35 am 00:35 Partly Cloudy 74 23.2 71 21.7 91 91 S 7 11 29.94 1014 10 16.09344 0.02 0.508
12:55 am 00:55 Clear 74 23.2 71 21.7 91 91 S 7 11 29.91 1013 10 16.09344 0.02 0.508
1:15 am 01:15 Clear 74 23.2 71 21.8 92 92 S 7 11 29.91 1013 10 16.09344 0 0
1:35 am 01:35 Partly Cloudy 74 23.4 72 22.1 92 92 S 9 15 29.91 1013 10 16.09344 0 0
1:55 am 01:55 Cloudy 75 23.7 72 22.1 91 91 SSW 15 24 29.91 1013 10 16.09344 0 0
2:15 am 02:15 Cloudy 75 23.7 72 22.1 91 91 SSW 10 17 29.91 1013 10 16.09344 0 0
2:35 am 02:35 Cloudy 74 23.6 71 21.9 90 90 SSW 13 20 29.91 1013 10 16.09344 0 0
2:55 am 02:55 Cloudy 74 23.5 71 21.8 90 90 S 9 15 29.91 1013 10 16.09344 0 0
3:15 am 03:15 Cloudy 74 23.4 71 21.9 91 91 S 9 15 29.91 1013 10 16.09344 0 0
3:35 am 03:35 Cloudy 74 23.4 71 21.7 90 90 SSW 10 17 29.91 1013 10 16.09344 0 0
3:55 am 03:55 Cloudy 74 23.4 71 21.7 90 90 SSW 12 19 29.88 1012 10 16.09344 0 0
4:15 am 04:15 Cloudy 74 23.4 71 21.6 90 90 SSW 12 19 29.88 1012 10 16.09344 0 0
4:35 am 04:35 Cloudy 74 23.5 71 21.7 90 90 SSW 10 17 29.88 1012 10 16.09344 0 0
4:55 am 04:55 Cloudy 74 23.6 71 21.7 89 89 SSW 12 19 29.88 1012 10 16.09344 0 0
5:15 am 05:15 Cloudy 74 23.6 71 21.7 89 89 S 12 19 29.88 1012 10 16.09344 0 0
5:35 am 05:35 Cloudy with Heavy Rain 73 23 71 21.9 94 94 S 13 20 29.88 1012 3 4.828032 0.02 0.508
5:55 am 05:55 Cloudy with Rain 73 22.8 72 22.1 96 96 SSW 12 19 29.88 1012 5 8.04672 0.04 1.016
6:15 am 06:15 Cloudy with Light Rain 73 22.7 72 22.1 96 96 SSW 9 15 29.88 1012 5 8.04672 0.02 0.508
6:35 am 06:35 Cloudy with Light Rain 73 22.7 72 22.1 96 96 SW 9 15 29.88 1012 5 8.04672 0.04 1.016
6:55 am 06:55 Cloudy with Light Rain 73 22.7 72 22.2 97 97 SW 10 17 29.88 1012 1.5 2.414016 0.06 1.524
7:15 am 07:15 Cloudy with Mist and Fog 73 22.7 72 22.2 97 97 SSW 12 19 29.88 1012 5 8.04672 0.01 0.254
7:35 am 07:35 Cloudy with Rain 73 23 72 22.4 96 96 SSW 12 19 29.88 1012 3.5 5.632704 0.03 0.762
7:55 am 07:55 Cloudy with Light Rain 73 22.9 72 22.4 97 97 SSW 12 19 29.88 1012 2 3.218688 0.06 1.524
8:15 am 08:15 Cloudy 74 23.1 73 22.5 96 96 SW 10 17 29.88 1012 10 16.09344 0.02 0.508
8:35 am 08:35 Cloudy 74 23.3 73 22.6 96 96 SSW 9 15 29.91 1013 10 16.09344 0.03 0.762
8:55 am 08:55 Cloudy with Light Rain 74 23.6 73 22.8 95 95 SW 10 17 29.91 1013 7 11.265408 0.05 1.27
9:15 am 09:15 Cloudy with Mist and Fog 74 23.6 73 22.8 95 95 SW 9 15 29.91 1013 4 6.437376 0 0
9:35 am 09:35 Cloudy 74 23.6 73 22.9 96 96 SSW 10 17 29.91 1013 10 16.09344 0 0
9:55 am 09:55 Cloudy 75 23.9 74 23.1 95 95 SW 7 11 29.91 1013 10 16.09344 0 0
10:15 am 10:15 Cloudy 76 24.3 74 23.5 95 95 WSW 8 13 29.91 1013 10 16.09344 0 0
10:35 am 10:35 Cloudy 77 25.1 75 23.8 93 93 SW 7 11 29.91 1013 10 16.09344 0 0
10:55 am 10:55 Cloudy 78 25.7 74 23.5 88 88 W 12 19 29.91 1013 10 16.09344 0 0
11:15 am 11:15 Sunny 81 27.1 75 23.9 83 83 WSW 7 11 29.91 1013 10 16.09344 0 0
11:35 am 11:35 Mostly Cloudy 80 26.9 75 24.1 85 85 SW 10 17 29.91 1013 10 16.09344 0 0
11:55 am 11:55 Cloudy 81 27.2 74 23.6 81 81 SW 10 17 29.91 1013 10 16.09344 0 0
12:15 pm 12:15 Mostly Cloudy 82 27.8 74 23.2 76 76 W 8 13 29.88 1012 10 16.09344 0 0
12:35 pm 12:35 Partly Cloudy 84 28.8 74 23.2 72 72 W 8 13 29.88 1012 10 16.09344 0 0
12:55 pm 12:55 Cloudy with Nearby Thunderstorms 83 28.3 74 23.5 75 75 SW 6 9 29.88 1012 10 16.09344 0 0
1:15 pm 13:15 Cloudy with Nearby Thunderstorms 81 27 75 23.7 82 82 WSW 12 19 29.91 1013 10 16.09344 0 0
1:35 pm 13:35 Partly Cloudy 83 28.1 75 24 78 78 SW 8 13 29.88 1012 10 16.09344 0 0
1:55 pm 13:55 Sunny with Nearby Thunderstorms 85 29.4 75 23.8 72 72 SW 8 13 29.88 1012 10 16.09344 0 0
2:15 pm 14:15 Mostly Cloudy 85 29.5 73 22.8 67 67 WSW 10 17 29.88 1012 10 16.09344 0 0
2:35 pm 14:35 Partly Cloudy 87 30.8 75 23.7 66 66 W 14 22 29.88 1012 10 16.09344 0 0
2:55 pm 14:55 Partly Cloudy 87 30.5 74 23.2 65 65 W 10 17 29.88 1012 10 16.09344 0 0
3:15 pm 15:15 Cloudy 87 30.3 74 23.2 66 66 W 10 17 29.88 1012 10 16.09344 0 0
3:35 pm 15:35 Mostly Cloudy 88 31.2 73 22.7 61 61 W 12 19 29.85 1011 10 16.09344 0 0
3:55 pm 15:55 Partly Cloudy 87 30.8 73 22.7 62 62 WNW 10 17 29.85 1011 10 16.09344 0 0
4:15 pm 16:15 Partly Cloudy 88 30.9 74 23.2 64 64 W 9 15 29.85 1011 10 16.09344 0 0
4:35 pm 16:35 Sunny 88 31.2 74 23.2 62 62 W 10 17 29.85 1011 10 16.09344 0 0
4:55 pm 16:55 Partly Cloudy 87 30.6 75 23.9 67 67 WSW 12 19 29.85 1011 10 16.09344 0 0
5:15 pm 17:15 Partly Cloudy 88 31.2 74 23.6 64 64 W 8 13 29.85 1011 10 16.09344 0 0
5:35 pm 17:35 Partly Cloudy 88 31.2 74 23.4 63 63 WNW 10 17 29.85 1011 10 16.09344 0 0
5:55 pm 17:55 Partly Cloudy 85 29.7 74 23.2 68 68 W 10 17 29.85 1011 10 16.09344 0 0
6:15 pm 18:15 Partly Cloudy 87 30.7 75 23.8 67 67 W 7 11 29.85 1011 10 16.09344 0 0
6:35 pm 18:35 Mostly Cloudy 87 30.7 74 23.1 64 64 W 12 19 29.85 1011 10 16.09344 0 0
6:55 pm 18:55 Cloudy 85 29.3 72 22.4 66 66 NNW 10 17 29.85 1011 10 16.09344 0 0
7:15 pm 19:15 Sunny 84 28.7 73 22.9 71 71 NW 6 9 29.85 1011 10 16.09344 0 0
7:35 pm 19:35 Partly Cloudy 84 28.8 74 23.4 73 73 WNW 8 13 29.85 1011 10 16.09344 0 0
7:55 pm 19:55 Sunny 83 28.2 73 22.7 72 72 WNW 8 13 29.88 1012 10 16.09344 0 0
8:15 pm 20:15 Sunny 81 27.4 73 22.7 76 76 WNW 6 9 29.88 1012 10 16.09344 0 0
8:35 pm 20:35 Mostly Cloudy 80 26.9 73 22.8 78 78 NW 10 17 29.91 1013 10 16.09344 0 0
8:55 pm 20:55 Sunny 79 25.9 73 22.7 83 83 N 3 6 29.91 1013 10 16.09344 0 0
9:15 pm 21:15 Partly Cloudy 78 25.5 72 22.1 82 82 Calm 29.91 1013 10 16.09344 0 0
9:35 pm 21:35 Partly Cloudy 78 25.6 72 22 81 81 Calm 29.91 1013 10 16.09344 0 0
9:55 pm 21:55 Mostly Cloudy 77 24.8 73 22.8 89 89 Calm 29.91 1013 10 16.09344 0 0
10:15 pm 22:15 Clear 76 24.2 73 22.7 91 91 Calm 29.94 1014 10 16.09344 0 0
10:35 pm 22:35 Clear 75 23.7 72 22.4 92 92 N 3 6 29.94 1014 10 16.09344 0 0
10:55 pm 22:55 Clear 74 23.3 73 22.6 96 96 Calm 29.94 1014 10 16.09344 0 0
11:15 pm 23:15 Mostly Cloudy with Mist and Fog 74 23.2 73 22.5 96 96 Calm 29.94 1014 4 6.437376 0 0
11:35 pm 23:35 Clear 74 23.2 72 22.3 95 95 Calm 29.94 1014 10 16.09344 0 0
11:55 pm 23:55 Clear 74 23.1 72 22.4 96 96 Calm 29.94 1014 10 16.09344 0 0

Powered by AerisWeather